METEOR 2-5 DEB, 40214

Orbit data source: Space-Track

METEOR 2-5 DEB, 40214 is space debris in LEO originally from a launch on Wed, 31 Oct 1979 UTC launched from the Plesetsk Missile And Space Complex (PKMTR). Debris objects in space refer to the collection of defunct objects orbiting the Earth. Examples of debris include non-operational satellites, rocket bodies, and fragments generated from explosions, collisions, or faulty payload assembly.

Loading next visibility...
Identifier
40214, 1979-095CM
Orbit
LEO
Country
Flag of CISCIS
Related business
Manufacturer
Unknown
Mission
Spacecraft
Bus & Motor
Unknown
Mass
Unknown
Launch date (UTC)
1979-10-31 (46 years ago)
Launch vehicle
Unknown
Launch site
Plesetsk Missile And Space Complex (PKMTR)
Object type
Payload
Rocket body
Debris
Shape & HBR
Unknown shape, 0.1 m
Radar Cross Section
Small (<0.1 m²)

Expand to show TLE details & history
Last TLE update: 15 hours ago

TLE from 15 hours ago
0 METEOR 2-5 DEB
1 40214U 79095CM  25293.58928836  .00004356  00000-0  16347-2 0  9992
2 40214  81.2069  38.6730 0013139  34.5823 325.6212 14.31469446572768
Epoch: 2025-10-20T14:08Z
TLE epoch observation values (Epoch: 2025-10-20T14:08:34.514Z)
Latitude
0.00005°
Longitude
157.23977°
Altitude
781.983 km
Speed
7.467 km/s
True Right ascension
02h 34m 41s
True Declination
0° 00' 00"
Sunlit
Object was in full shadow at epoch
Visualization orbit readout
Latitude
Unknown
Longitude
Unknown
Altitude
Unknown
Speed
Unknown
Apparent Right ascension
Unknown
Apparent Declination
Unknown
Sunlit
N/A
Visualization observer readout
Local Sidereal Time
23:50:28
Azimuth
Unknown
Elevation
Unknown
Doppler factor
Unknown
Orbital elements
Apogee altitude
793.381 km
Perigee altitude
774.56 km
Semi-major axis
7,162.108 km
Eccentricity
0.00131
Inclination
81.2069°
RAAN
38.673°
Arg. of periapsis
34.5823°
True anomaly
325.53607°
Mean anomaly
325.6212°
Eccentric anomaly
325.57865°
Mean motion
3.58082 °/min
Orbital period
100.54 mins
BSTAR
0.0016347
Loading maneuver chart data...
Computing Atmospheric mass density...
Loading historical data...
Loading historical data...
Loading historical data...
Loading historical data...
Loading historical data...
Loading historical data...
Loading historical data...

Documentation

Showing up to 5 results
|